Theta_e
369 359 358 360 355 355 352 355 370 366 364 367 367 365 362 356 353 357 359 360 358 352
366 364 361 370 362 356 362 354 364 363 363 365 366 364 362 355 356 358 358 361 363 360
356 361 361 360 364 365 366 370 371 367 364 364 366 365 364 357 355 354 358 358 360 363
352 353 357 356 362 364 364 371 375 374 368 366 364 365 363 363 361 358 358 362 360 360
351 357 354 358 359 362 365 372 374 374 370 366 367 369 364 359 358 357 357 359 358 356
352 352 354 357 359 362 368 368 367 372 371 370 368 368 366 364 363 358 357 359 358 359
356 357 356 359 363 361 367 369 371 371 373 369 370 368 366 364 364 362 360 361 360 357
361 362 363 364 364 364 365 368 372 371 370 370 366 362 367 367 365 366 364 362 360 354
363 363 363 364 365 367 365 369 369 371 367 367 366 345 343 358 364 365 365 362 361 359
359 358 360 363 363 364 362 364 363 365 365 366 365 342 341 343 357 361 362 364 363 360
353 354 357 357 358 359 359 360 361 360 360 359 358 340 336 339 352 358 362 363 363 365
344 346 350 352 354 358 356 356 357 358 358 358 357 339 333 339 350 350 356 361 365 366
342 342 341 343 346 351 354 351 352 354 357 348 355 340 329 336 347 349 347 354 358 345
339 339 340 343 343 344 346 350 351 350 353 356 353 353 327 327 347 344 344 343 345 350
Wind_Speed
14 11 12 12 11 7 9 8 7 10 10 10 8 7 6 6 5 8 9 10 9 8
13 14 12 10 9 9 10 10 6 7 9 10 10 8 10 8 8 4 9 9 9 8
15 14 13 12 12 11 9 8 6 8 9 9 9 10 10 9 10 8 8 6 8 10
14 15 13 14 12 11 11 10 8 8 9 10 11 11 11 10 9 12 9 11 11 11
15 13 13 13 13 12 12 11 11 11 11 12 12 11 12 14 12 13 13 11 11 11
13 11 13 13 13 12 11 11 13 13 13 14 14 13 14 14 14 14 15 14 14 15
10 10 11 10 10 11 10 10 11 13 13 14 14 15 16 16 15 15 15 16 15 14
4 6 6 8 8 8 9 10 10 10 12 13 14 14 16 16 17 16 16 16 16 16
5 4 6 7 8 7 9 8 9 9 11 13 10 9 9 14 14 15 16 15 15 15
4 3 3 6 6 5 6 6 9 11 11 10 11 4 2 7 11 13 16 15 15 15
6 6 6 3 3 4 6 7 8 10 10 10 9 8 6 8 11 12 16 16 18 18
7 8 8 7 7 5 6 8 8 8 10 11 12 10 12 11 12 13 15 15 16 17
8 8 8 8 8 9 8 8 9 10 9 11 11 9 11 13 11 12 12 14 16 18
7 9 9 8 8 9 10 10 7 10 11 11 12 11 13 14 12 12 11 12 11 11
Wind_Direction
220 228 232 233 251 253 243 262 206 172 211 207 203 203 184 192 204 210 212 209 220 235
223 231 250 254 256 232 241 263 259 184 207 224 194 185 195 207 206 263 219 212 202 231
226 226 234 241 245 259 267 243 248 190 208 220 206 204 203 205 202 219 234 212 219 216
228 226 224 233 237 235 235 244 225 205 208 212 215 205 207 220 214 216 220 217 210 222
225 237 236 218 234 233 225 218 228 204 207 212 210 208 207 215 215 216 225 215 225 231
227 230 237 241 235 235 231 219 223 216 214 210 207 204 209 215 217 219 221 219 218 226
210 229 234 239 227 241 233 234 228 226 219 223 219 211 210 208 214 222 223 223 223 226
283 282 279 281 285 269 241 240 230 238 240 225 229 226 218 215 210 221 224 227 223 225
334 294 274 281 284 262 259 251 255 247 244 250 246 301 270 214 231 233 231 233 227 236
12 341 311 351 320 301 308 305 272 263 261 260 260 147 301 277 226 227 238 243 240 238
7 350 336 294 297 285 271 260 256 259 263 263 261 222 206 262 270 241 236 238 245 244
0 350 339 325 318 279 270 280 263 255 256 258 261 244 214 211 248 246 248 250 250 249
337 332 326 320 315 311 291 286 283 270 268 253 261 266 208 201 243 243 243 238 245 247
327 320 300 313 314 307 302 304 278 281 281 273 267 265 191 201 237 252 250 252 259 254